カタログに戻る

STARLINK-34291

運用中通信VLEO
NORAD 64359·PAYLOAD·🇺🇸 United States

打ち上げ Jun 13, 2025 から Vandenberg Space Force Base

Loading…

次のパス (今後24時間)

TLE

最新Source: CelesTrak SupGP

元期: Sep 15, 2026, 03:37 UTC

1 64359C 25126R   26258.15118056 -.00029189  00000+0 -10153-2 0  2583
2 64359  70.0003 275.2237 0003510 266.1996 309.9828 15.29594960    15

AllMySatでSTARLINK-34291をリアルタイム追跡

Download on the App Store